GW3676 Weather Reports


time (UTC)temp
C
wind
direction
speed
KPH
gust
KPH
rain 1hr
cm
rain 24hr
cm
rain mn
cm
humidity
%
barometer
mb
20260510141552 10 348 1.6 9.7 0.00 0.66 0.00 74 1016.0
20260510140053 9 59 1.6 16.1 0.00 0.66 0.00 75 1015.9
20260510134554 9 216 3.2 11.3 0.00 0.66 0.00 78 1015.6
20260510133048 8 329 1.6 8.0 0.00 0.66 0.00 82 1015.7
20260510131548 8 13 1.6 6.4 0.00 0.66 0.00 84 1015.3
20260510130051 8 341 3.2 11.3 0.00 0.66 0.00 83 1014.7
20260510124606 8 335 3.2 6.4 0.00 0.66 0.00 86 1014.7
20260510123050 8 0 1.6 4.8 0.00 0.66 0.00 87 1014.7
20260510121547 8 0 0.0 3.2 0.00 0.66 0.00 88 1014.3
20260510120044 8 0 0.0 4.8 0.00 0.66 0.00 88 1013.9
20260510114545 8 0 1.6 6.4 0.00 0.66 0.00 89 1013.5
20260510113050 8 0 1.6 4.8 0.00 0.66 0.00 91 1013.3
20260510111548 8 336 1.6 6.4 0.00 0.66 0.00 92 1012.6
20260510110052 8 346 1.6 3.2 0.00 0.66 0.00 94 1012.3
20260510104547 8 328 0.0 3.2 0.00 0.74 0.00 95 1012.2
20260510103044 8 0 0.0 1.6 0.00 0.74 0.00 95 1011.9
20260510101549 8 0 0.0 0.0 0.00 0.74 0.00 94 1011.8
20260510100048 8 0 0.0 1.6 0.00 0.74 0.00 94 1011.8
20260510094602 8 0 0.0 1.6 0.00 0.84 0.00 94 1011.4
20260510093116 9 0 0.0 1.6 0.00 0.84 0.00 94 1011.1
20260510091547 9 0 0.0 3.2 0.00 0.84 0.00 94 1010.6
20260510090051 10 38 0.0 4.8 0.00 0.84 0.00 94 1010.5
20260510084547 10 0 1.6 6.4 0.00 1.07 0.00 95 1010.3
20260510083051 11 320 1.6 6.4 0.00 1.07 0.00 96 1010.2
20260510081549 11 0 0.0 3.2 0.00 1.07 0.00 96 1009.9
20260510080050 11 0 0.0 3.2 0.00 1.07 0.00 96 1009.6
20260510074552 11 0 0.0 1.6 0.00 1.40 0.00 96 1009.5
20260510073052 11 350 0.0 0.0 0.00 1.40 0.00 96 1009.3
20260510071555 10 0 0.0 4.8 0.00 1.40 0.00 96 1009.3
20260510070054 11 0 0.0 0.0 0.00 1.40 0.00 95 1009.1
20260510064550 11 0 0.0 1.6 0.00 1.65 0.00 95 1008.9
20260510063054 11 0 0.0 1.6 0.00 1.65 0.00 95 1008.7
20260510061552 11 0 0.0 8.0 0.00 1.65 0.00 96 1008.5
20260510060048 11 329 1.6 4.8 0.00 1.65 0.00 95 1008.4
20260510054549 11 0 0.0 6.4 0.00 1.75 0.00 96 1008.3
20260510053059 11 177 1.6 9.7 0.00 1.75 0.00 96 1008.6
20260510051551 11 202 1.6 3.2 0.00 1.75 0.00 95 1008.7
20260510050049 11 0 0.0 3.2 0.00 1.75 0.00 95 1008.1
20260510044551 11 0 0.0 1.6 0.03 1.85 0.00 95 1008.0
20260510043100 12 0 0.0 3.2 0.05 1.85 0.00 95 1008.2
20260510041549 12 0 0.0 3.2 0.08 1.85 0.00 95 1008.4
20260510040053 12 0 1.6 4.8 0.08 1.85 0.00 95 1008.7
20260510034544 12 196 0.0 6.4 0.05 1.88 1.83 95 1007.9
20260510033057 12 0 0.0 3.2 0.03 1.85 1.80 95 1007.9
20260510031549 12 145 0.0 3.2 0.00 1.83 1.78 95 1008.0
20260510030047 12 0 0.0 4.8 0.00 1.83 1.78 95 1008.6
20260510024550 12 0 0.0 3.2 0.00 1.88 1.78 95 1007.8
20260510023042 12 0 0.0 4.8 0.00 1.88 1.78 94 1007.4
20260510021550 12 166 0.0 4.8 0.00 1.88 1.78 94 1007.4
20260510020047 12 153 1.6 4.8 0.05 1.88 1.78 94 1007.5
20260510014550 12 182 0.0 6.4 0.10 1.96 1.78 94 1007.3
20260510013050 12 0 0.0 3.2 0.20 1.96 1.78 94 1006.8
20260510011552 12 120 0.0 3.2 0.30 1.96 1.78 93 1006.9
20260510010043 12 0 0.0 3.2 0.41 1.91 1.73 93 1007.0
20260510004551 12 116 0.0 4.8 0.48 1.93 1.68 92 1006.7
20260510003046 12 82 1.6 8.0 0.38 1.83 1.57 90 1007.2
20260510001549 13 13 1.6 8.0 0.28 1.73 1.47 88 1007.2
20260510000057 15 250 3.2 24.1 0.13 1.57 1.32 80 1006.5
20260509234549 18 346 1.6 11.3 0.00 1.45 1.19 64 1005.6
20260509233048 18 188 4.8 12.9 0.00 1.45 1.19 61 1004.8
20260509231548 18 147 4.8 20.9 0.00 1.45 1.19 61 1004.9
20260509230044 19 156 4.8 14.5 0.00 1.45 1.19 60 1004.8
20260509224549 19 211 6.4 17.7 0.00 1.45 1.19 60 1004.6
20260509223044 19 200 8.0 17.7 0.00 1.45 1.19 59 1004.5
20260509221546 20 203 6.4 17.7 0.00 1.45 1.19 59 1004.6
20260509220049 20 163 8.0 19.3 0.00 1.45 1.19 58 1004.6
20260509214559 20 177 6.4 16.1 0.00 1.45 1.19 60 1004.5
20260509213048 20 201 3.2 17.7 0.00 1.45 1.19 58 1004.6
20260509211550 20 141 6.4 19.3 0.00 1.45 1.19 57 1004.9
20260509204549 20 151 6.4 17.7 0.00 1.47 1.19 59 1005.3
20260509203101 20 121 8.0 16.1 0.00 1.47 1.19 58 1005.3
20260509201548 20 184 6.4 16.1 0.00 1.47 1.19 59 1005.4
20260509200047 19 107 6.4 16.1 0.00 1.47 1.19 62 1005.7
20260509194548 19 160 3.2 19.3 0.00 1.55 1.19 63 1005.7
20260509193057 18 158 4.8 17.7 0.00 1.55 1.19 64 1006.1
20260509191557 18 121 6.4 14.5 0.00 1.55 1.19 67 1006.2
20260509190054 18 169 4.8 17.7 0.00 1.55 1.19 68 1006.2
20260509184555 18 171 3.2 19.3 0.00 1.60 1.19 66 1006.3
20260509183056 18 146 6.4 16.1 0.00 1.60 1.19 66 1006.4
20260509181542 17 155 4.8 16.1 0.00 1.60 1.19 67 1006.6
20260509180045 17 224 3.2 16.1 0.00 1.60 1.19 69 1006.6
20260509174601 17 163 4.8 17.7 0.00 1.60 1.19 69 1006.7
20260509173053 16 190 6.4 16.1 0.00 1.60 1.19 70 1006.4
20260509171547 16 128 6.4 17.7 0.00 1.60 1.19 73 1006.6
20260509170045 16 110 3.2 16.1 0.00 1.60 1.19 75 1006.8
20260509164546 15 236 4.8 14.5 0.00 1.60 1.19 78 1007.0
20260509163048 15 18 4.8 11.3 0.00 1.60 1.19 80 1007.0
20260509161549 15 173 3.2 11.3 0.00 1.60 1.19 85 1007.1
20260509160051 14 140 3.2 11.3 0.00 1.60 1.19 86 1007.1
20260509154549 13 104 3.2 11.3 0.00 1.60 1.19 88 1007.1
20260509153054 13 127 4.8 14.5 0.00 1.60 1.19 89 1007.0
20260509151547 13 167 1.6 14.5 0.00 1.60 1.19 91 1006.9
20260509150047 12 167 3.2 11.3 0.00 1.60 1.19 94 1006.8
20260509144550 12 105 1.6 9.7 0.00 1.60 1.19 95 1006.9
20260509143052 11 117 3.2 12.9 0.00 1.60 1.19 95 1006.9